TimeCST,TemperatureF,Dew PointF,Humidity,Sea Level PressureIn,VisibilityMPH,Wind Direction,Wind SpeedMPH,Gust SpeedMPH,PrecipitationIn,Events,Conditions,WindDirDegrees,DateUTC
12:15 AM,19.2,13.3,78,30.12,7.0,North,20.7,26.5,N/A,,Overcast,350,2014-03-01 06:15:00
12:35 AM,17.8,11.3,76,30.14,10.0,North,17.3,21.9,N/A,,Overcast,350,2014-03-01 06:35:00
12:55 AM,16.9,10.4,76,30.15,7.0,North,19.6,27.6,N/A,,Overcast,350,2014-03-01 06:55:00
1:15 AM,15.6,9.1,76,30.16,10.0,North,20.7,26.5,N/A,,Overcast,360,2014-03-01 07:15:00
1:40 AM,14.0,5.9,70,30.16,7.0,North,19.6,-,N/A,,Overcast,360,2014-03-01 07:40:00
1:55 AM,12.9,5.7,73,30.18,7.0,North,20.7,25.3,N/A,,Overcast,360,2014-03-01 07:55:00
2:15 AM,12.6,4.8,71,30.19,10.0,North,20.7,27.6,N/A,,Overcast,350,2014-03-01 08:15:00
2:35 AM,12.2,4.6,72,30.20,10.0,North,17.3,25.3,N/A,,Overcast,350,2014-03-01 08:35:00
2:55 AM,12.2,4.8,72,30.21,10.0,NNW,20.7,-,N/A,,Overcast,340,2014-03-01 08:55:00
3:15 AM,11.3,3.4,70,30.23,10.0,North,18.4,25.3,N/A,,Overcast,350,2014-03-01 09:15:00
3:35 AM,10.4,3.2,73,30.21,10.0,North,18.4,24.2,N/A,,Overcast,350,2014-03-01 09:35:00
3:55 AM,9.7,1.4,69,30.20,10.0,North,18.4,25.3,N/A,,Overcast,360,2014-03-01 09:55:00
4:15 AM,9.5,1.6,70,30.21,10.0,North,20.7,-,N/A,,Overcast,350,2014-03-01 10:15:00
4:35 AM,8.4,0.5,70,30.21,5.0,North,23.0,27.6,N/A,,Haze,350,2014-03-01 10:35:00
4:55 AM,7.7,0.7,73,30.21,5.0,North,26.5,32.2,N/A,,Haze,360,2014-03-01 10:55:00
5:15 AM,7.3,0.1,72,30.24,7.0,North,19.6,27.6,N/A,,Overcast,350,2014-03-01 11:15:00
5:35 AM,7.2,-0.0,72,30.27,10.0,North,17.3,-,N/A,,Overcast,350,2014-03-01 11:35:00
5:55 AM,6.8,-0.0,74,30.26,10.0,North,15.0,-,N/A,,Overcast,350,2014-03-01 11:55:00
6:15 AM,6.4,-0.4,74,30.26,10.0,North,17.3,21.9,N/A,,Overcast,360,2014-03-01 12:15:00
6:35 AM,6.4,-0.4,74,30.32,10.0,North,15.0,-,N/A,Snow,Light Snow,350,2014-03-01 12:35:00
6:55 AM,5.7,-0.4,76,30.30,7.0,North,13.8,-,N/A,Snow,Light Snow,350,2014-03-01 12:55:00
7:15 AM,5.5,-0.8,75,30.31,7.0,North,13.8,18.4,N/A,Snow,Light Snow,350,2014-03-01 13:15:00
7:35 AM,5.4,-0.9,75,30.31,10.0,North,15.0,18.4,N/A,,Overcast,350,2014-03-01 13:35:00
7:55 AM,5.0,-1.5,75,30.33,10.0,North,13.8,-,N/A,,Overcast,350,2014-03-01 13:55:00
8:15 AM,4.8,-1.5,75,30.32,10.0,North,16.1,-,N/A,,Mostly Cloudy,360,2014-03-01 14:15:00
8:35 AM,5.4,-1.3,74,30.33,7.0,North,13.8,20.7,N/A,,Scattered Clouds,10,2014-03-01 14:35:00
8:55 AM,5.2,-1.8,73,30.34,7.0,North,16.1,24.2,N/A,,Mostly Cloudy,360,2014-03-01 14:55:00
9:15 AM,5.4,-1.7,73,30.36,7.0,North,17.3,-,N/A,,Overcast,360,2014-03-01 15:15:00
9:35 AM,5.4,-1.5,73,30.39,7.0,North,18.4,25.3,N/A,,Overcast,360,2014-03-01 15:35:00
9:55 AM,5.0,-2.2,72,30.38,5.0,North,19.6,27.6,N/A,,Haze,10,2014-03-01 15:55:00
10:15 AM,5.0,-1.3,75,30.39,3.0,North,17.3,-,N/A,Snow,Light Snow,350,2014-03-01 16:15:00
10:35 AM,5.0,-1.5,75,30.40,2.0,North,16.1,23.0,N/A,Snow,Light Snow,360,2014-03-01 16:35:00
10:55 AM,5.0,-1.5,75,30.41,1.5,North,18.4,-,N/A,Snow,Light Snow,350,2014-03-01 16:55:00
11:15 AM,4.6,-1.8,75,30.40,1.2,North,19.6,-,N/A,Snow,Light Snow,360,2014-03-01 17:15:00
11:35 AM,4.5,-1.8,75,30.41,1.8,North,17.3,-,N/A,Snow,Light Snow,350,2014-03-01 17:35:00
11:55 AM,4.1,-2.4,75,30.43,5.0,North,15.0,-,N/A,Snow,Light Snow,350,2014-03-01 17:55:00
12:15 PM,3.9,-2.6,74,30.41,3.0,North,20.7,26.5,N/A,,Haze,360,2014-03-01 18:15:00
12:40 PM,4.1,-2.6,74,30.39,-9999.0,North,17.3,-,N/A,,Unknown,360,2014-03-01 18:40:00
12:55 PM,4.1,-2.9,73,30.37,4.0,North,15.0,-,N/A,,Haze,10,2014-03-01 18:55:00
1:15 PM,4.1,-2.7,73,30.38,4.0,North,20.7,-,N/A,,Haze,360,2014-03-01 19:15:00
1:35 PM,4.1,-2.9,73,30.38,3.0,North,17.3,-,N/A,Snow,Light Snow,10,2014-03-01 19:35:00
1:55 PM,4.1,-2.4,75,30.39,3.0,North,16.1,-,N/A,Snow,Light Snow,350,2014-03-01 19:55:00
2:15 PM,3.7,-2.9,74,30.39,4.0,North,19.6,23.0,N/A,Snow,Light Snow,360,2014-03-01 20:15:00
2:35 PM,3.9,-2.6,74,30.40,1.2,North,16.1,-,N/A,Snow,Light Snow,360,2014-03-01 20:35:00
2:55 PM,3.7,-2.2,76,30.39,0.8,North,11.5,-,N/A,Snow,Light Snow,360,2014-03-01 20:55:00
3:15 PM,3.2,-2.9,76,30.41,0.8,North,19.6,23.0,N/A,Snow,Light Snow,360,2014-03-01 21:15:00
3:35 PM,3.2,-2.6,77,30.41,0.8,North,16.1,-,N/A,Snow,Light Snow,350,2014-03-01 21:35:00
3:55 PM,2.7,-3.6,75,30.39,1.2,North,18.4,-,N/A,Snow,Light Snow,360,2014-03-01 21:55:00
4:15 PM,2.3,-3.8,76,30.41,1.0,North,16.1,-,N/A,Snow,Light Snow,360,2014-03-01 22:15:00
4:35 PM,2.3,-3.3,77,30.41,1.2,North,12.7,-,N/A,Snow,Light Snow,360,2014-03-01 22:35:00
4:55 PM,2.1,-3.6,77,30.40,1.0,North,15.0,-,N/A,Snow,Light Snow,360,2014-03-01 22:55:00
5:15 PM,1.8,-3.8,77,30.41,1.0,North,16.1,-,N/A,Snow,Light Snow,360,2014-03-01 23:15:00
5:35 PM,1.4,-3.8,79,30.43,0.8,North,15.0,-,N/A,Snow,Light Snow,360,2014-03-01 23:35:00
5:55 PM,1.4,-4.0,78,30.42,1.0,North,13.8,-,N/A,Snow,Light Snow,360,2014-03-01 23:55:00
6:15 PM,1.2,-4.5,77,30.44,3.0,North,16.1,-,N/A,Snow,Light Snow,350,2014-03-02 00:15:00
6:35 PM,0.9,-5.3,75,30.45,7.0,North,16.1,-,N/A,,Overcast,350,2014-03-02 00:35:00
6:55 PM,0.9,-5.6,74,30.45,7.0,North,16.1,-,N/A,,Overcast,360,2014-03-02 00:55:00
7:15 PM,0.5,-5.8,75,30.45,3.0,North,17.3,-,N/A,Snow,Light Snow,360,2014-03-02 01:15:00
7:35 PM,0.3,-5.4,77,30.46,2.0,North,16.1,24.2,N/A,Snow,Light Snow,360,2014-03-02 01:35:00
7:55 PM,0.1,-5.1,79,30.46,1.0,North,13.8,-,N/A,Snow,Snow,360,2014-03-02 01:55:00
8:15 PM,0.1,-5.6,77,30.46,5.0,North,18.4,-,N/A,Snow,Light Snow,360,2014-03-02 02:15:00
8:35 PM,0.1,-6.2,75,30.44,7.0,North,13.8,-,N/A,,Overcast,10,2014-03-02 02:35:00
8:55 PM,-0.0,-6.9,73,30.46,5.0,North,16.1,-,N/A,Snow,Light Snow,360,2014-03-02 02:55:00
9:15 PM,-0.4,-6.3,76,30.47,2.5,North,17.3,-,N/A,Snow,Light Snow,360,2014-03-02 03:15:00
9:35 PM,-0.4,-6.2,77,30.48,4.0,North,17.3,20.7,N/A,Snow,Light Snow,360,2014-03-02 03:35:00
9:55 PM,-0.0,-7.2,72,30.49,7.0,North,16.1,-,N/A,,Overcast,10,2014-03-02 03:55:00
10:15 PM,-0.0,-6.9,73,30.49,7.0,North,13.8,19.6,N/A,,Overcast,360,2014-03-02 04:15:00
10:35 PM,-0.2,-7.2,72,30.49,7.0,North,13.8,-,N/A,,Overcast,350,2014-03-02 04:35:00
10:55 PM,-0.4,-7.8,71,30.49,10.0,North,15.0,-,N/A,,Overcast,360,2014-03-02 04:55:00
11:15 PM,-0.4,-8.0,70,30.49,10.0,North,17.3,20.7,N/A,,Overcast,360,2014-03-02 05:15:00
11:35 PM,-0.6,-8.5,69,30.49,10.0,North,19.6,-,N/A,,Overcast,350,2014-03-02 05:35:00